Overview Statistics Trail Chart Weather Telemetry Raw packets
 

This is the latest recevied weather packets stored in our database for station/object WI0K. If no packets are shown the sender has not sent any weather packets the latest 10 day(s).

<< 68 69 70 71 72 73 74 >>
Time Temp. Humidity Pressure Rain* Wind** Luminosity Snow
1788189321 22.22° C 48% 1021.9 hPa 0 mm - 219 W/m² -
1788189020 22.22° C 49% 1021.8 hPa 0 mm - 468 W/m² -
1788188719 21.67° C 50% 1021.9 hPa 0 mm - 328 W/m² -
1788188418 21.67° C 51% 1021.9 hPa 0 mm - 315 W/m² -
1788188117 21.67° C 51% 1021.9 hPa 0 mm - 371 W/m² -
1788187817 21.67° C 48% 1021.9 hPa 0 mm - 358 W/m² -
1788187516 21.67° C 48% 1021.9 hPa 0 mm - 430 W/m² -
1788187215 21.11° C 51% 1021.9 hPa 0 mm - 410 W/m² -
1788186915 21.11° C 52% 1021.9 hPa 0 mm - 320 W/m² -
1788186614 20.56° C 52% 1021.9 hPa 0 mm - 268 W/m² -
1788186313 21.11° C 50% 1021.8 hPa 0 mm - 229 W/m² -
1788186013 20.56° C 52% 1021.7 hPa 0 mm - 368 W/m² -
1788185712 20° C 54% 1021.8 hPa 0 mm - 369 W/m² -
1788185411 20° C 57% 1021.7 hPa 0 mm - 268 W/m² -
1788185110 19.44° C 58% 1021.7 hPa 0 mm - 151 W/m² -
1788184810 19.44° C 61% 1021.7 hPa 0 mm - 145 W/m² -
1788184509 19.44° C 61% 1021.8 hPa 0 mm - 186 W/m² -
1788184208 19.44° C 59% 1021.7 hPa 0 mm - 102 W/m² -
1788183908 19.44° C 58% 1021.7 hPa 0 mm - 100 W/m² -
1788183607 19.44° C 57% 1021.6 hPa 0 mm - 217 W/m² -
1788183306 18.89° C 58% 1021.6 hPa 0 mm - 221 W/m² -
1788183005 18.33° C 58% 1021.5 hPa 0 mm - 219 W/m² -
1788182705 17.78° C 57% 1021.4 hPa 0 mm - 204 W/m² -
1788182404 16.67° C 61% 1021.2 hPa 0 mm - 177 W/m² -
1788182103 16.11° C 65% 1021.5 hPa 0 mm - 151 W/m² -

* Rain latest hour (hover to see other rain measurements)
** Current wind speed in m/s (hover to see current wind gust speed)